DW0479 Weather Reports


Display with metric or nautical units.
time (UTC)temp
F
wind
direction
speed
MPH
gust
MPH
rain 1hr
in
rain 24hr
in
rain mn
in
humidity
%
barometer
mb
20240521173208 89 48 4.0 9.0 0.00 0.00 0.00 52 1013.5
20240521172204 89 337 7.0 14.0 0.00 0.00 0.00 54 1013.6
20240521171205 89 25 6.0 11.0 0.00 0.00 0.00 54 1013.6
20240521170205 89 329 5.0 13.0 0.00 0.00 0.00 54 1013.7
20240521165642 88 7 4.0 14.0 0.00 0.00 0.00 58 1013.7
20240521164200 88 72 4.0 11.0 0.00 0.00 0.00 58 1013.8
20240521163159 87 2 5.0 11.0 0.00 0.00 0.00 61 1014.0
20240521162200 86 305 4.0 12.0 0.00 0.00 0.00 58 1014.0
20240521161200 86 43 4.0 11.0 0.00 0.00 0.00 61 1014.1
20240521160146 85 58 4.0 11.0 0.00 0.00 0.00 63 1014.2
20240521155147 85 331 3.0 7.0 0.00 0.00 0.00 62 1014.3
20240521154147 85 356 3.0 8.0 0.00 0.00 0.00 60 1014.5
20240521153148 84 103 2.0 6.0 0.00 0.00 0.00 63 1014.3
20240521152146 83 358 3.0 8.0 0.00 0.00 0.00 66 1014.2
20240521151146 83 15 3.0 10.0 0.00 0.00 0.00 68 1014.1
20240521150617 83 57 4.0 9.0 0.00 0.00 0.00 70 1014.1
20240521145146 82 44 4.0 6.0 0.00 0.00 0.00 69 1014.1
20240521144624 81 87 3.0 6.0 0.00 0.00 0.00 72 1014.1
20240521143131 81 341 2.0 6.0 0.00 0.00 0.00 73 1014.2
20240521142130 80 15 3.0 8.0 0.00 0.00 0.00 75 1014.2
20240521141130 80 351 3.0 7.0 0.00 0.00 0.00 76 1014.3
20240521140131 79 20 4.0 9.0 0.00 0.00 0.00 77 1014.3
20240521135130 79 53 4.0 10.0 0.00 0.00 0.00 79 1014.2
20240521134130 78 37 5.0 9.0 0.00 0.00 0.00 81 1014.2
20240521133129 77 46 4.0 11.0 0.00 0.00 0.00 83 1014.2
20240521132130 76 2 5.0 10.0 0.00 0.00 0.00 83 1014.2
20240521131131 76 15 5.0 10.0 0.00 0.00 0.00 83 1014.2
20240521131050 75 15 5.0 10.0 0.00 0.00 0.00 83 1014.2
20240521125128 75 7 4.0 9.0 0.00 0.00 0.00 84 1014.1
20240521125054 74 40 3.0 6.0 0.00 0.00 0.00 86 1014.0
20240521123128 73 10 2.0 6.0 0.00 0.00 0.00 87 1014.0
20240521122126 72 15 2.0 6.0 0.00 0.00 0.00 89 1014.0
20240521121125 71 349 1.0 4.0 0.00 0.00 0.00 90 1013.9
20240521120126 70 347 2.0 4.0 0.00 0.00 0.00 91 1013.9
20240521115127 69 354 1.0 4.0 0.00 0.00 0.00 93 1013.7
20240521114125 68 35 0.0 3.0 0.00 0.00 0.00 93 1013.6
20240521113548 67 37 0.0 1.0 0.00 0.00 0.00 93 1013.6
20240521112549 66 37 0.0 0.0 0.00 0.00 0.00 93 1013.6
20240521111111 65 37 0.0 0.0 0.00 0.00 0.00 93 1013.5
20240521111032 65 37 1.0 1.0 0.00 0.00 0.00 93 1013.5
20240521105600 64 37 0.0 0.0 0.00 0.00 0.00 93 1013.4
20240521104544 64 37 0.0 0.0 0.00 0.00 0.00 93 1013.2
20240521103108 64 37 0.0 0.0 0.00 0.00 0.00 93 1013.0
20240521102103 64 37 0.0 1.0 0.00 0.00 0.00 93 1013.0
20240521101501 64 37 0.0 2.0 0.00 0.00 0.00 93 1012.9
20240521101135 64 37 0.0 1.0 0.00 0.00 0.00 93 1012.9
20240521095059 65 37 0.0 2.0 0.00 0.00 0.00 93 1012.8
20240521094058 64 37 0.0 0.0 0.00 0.00 0.00 93 1012.8
20240521093059 65 37 0.0 2.0 0.00 0.00 0.00 92 1012.8
20240521092057 65 37 0.0 1.0 0.00 0.00 0.00 92 1012.8
20240521091057 65 37 0.0 2.0 0.00 0.00 0.00 92 1012.8
20240521090056 65 38 0.0 0.0 0.00 0.00 0.00 92 1012.8
20240521085054 65 39 0.0 1.0 0.00 0.00 0.00 92 1012.9
20240521084055 66 39 0.0 0.0 0.00 0.00 0.00 92 1012.8
20240521083055 67 38 0.0 1.0 0.00 0.00 0.00 91 1012.7
20240521082056 67 39 0.0 1.0 0.00 0.00 0.00 91 1012.6
20240521081054 67 38 0.0 2.0 0.00 0.00 0.00 90 1012.7
20240521080058 68 38 0.0 3.0 0.00 0.00 0.00 90 1012.7
20240521075052 68 42 0.0 3.0 0.00 0.00 0.00 89 1012.6
20240521074053 69 41 1.0 2.0 0.00 0.00 0.00 89 1012.7
20240521073054 69 42 2.0 8.0 0.00 0.00 0.00 89 1012.5
20240521072054 69 20 2.0 6.0 0.00 0.00 0.00 88 1012.4
20240521071054 69 44 2.0 4.0 0.00 0.00 0.00 88 1012.3
20240521070534 68 49 1.0 3.0 0.00 0.00 0.00 87 1012.3
20240521065050 69 51 2.0 5.0 0.00 0.00 0.00 87 1012.2
20240521064052 69 46 1.0 4.0 0.00 0.00 0.00 87 1012.4
20240521063053 69 46 3.0 7.0 0.00 0.00 0.00 88 1012.6
20240521062048 68 51 3.0 8.0 0.00 0.00 0.00 89 1012.8
20240521061522 67 58 0.0 3.0 0.00 0.00 0.00 89 1012.9
20240521060048 67 59 0.0 1.0 0.00 0.00 0.00 89 1013.2
20240521055050 67 58 0.0 1.0 0.00 0.00 0.00 88 1013.2
20240521054524 67 59 1.0 2.0 0.00 0.00 0.00 88 1013.4
20240521053048 67 60 0.0 3.0 0.00 0.00 0.00 87 1013.5
20240521052047 68 64 0.0 1.0 0.00 0.00 0.00 87 1013.5
20240521051527 68 64 0.0 0.0 0.00 0.00 0.00 87 1013.7
20240521050047 68 64 0.0 0.0 0.00 0.00 0.00 86 1013.8
20240521045045 69 64 0.0 0.0 0.00 0.00 0.00 85 1013.8
20240521044044 69 64 0.0 2.0 0.00 0.00 0.00 85 1013.8
20240521043526 69 64 0.0 2.0 0.00 0.00 0.00 84 1013.9
20240521042032 70 64 0.0 1.0 0.00 0.00 0.00 82 1014.1
20240521041032 71 64 0.0 2.0 0.00 0.00 0.00 81 1014.1
20240521040031 71 64 0.0 1.0 0.00 0.00 0.00 80 1014.2
20240521035030 72 64 1.0 3.0 0.00 0.00 0.00 79 1014.2
20240521034026 72 64 1.0 4.0 0.00 0.00 0.00 78 1014.1
20240521033027 73 81 3.0 8.0 0.00 0.00 0.00 77 1014.0
20240521032027 73 44 4.0 9.0 0.00 0.00 0.00 77 1014.0
20240521031026 73 34 3.0 5.0 0.00 0.00 0.00 78 1013.9
20240521030503 73 54 2.0 8.0 0.00 0.00 0.00 77 1014.1
20240521025505 74 31 5.0 12.0 0.00 0.00 0.00 76 1013.9
20240521024022 74 54 5.0 11.0 0.00 0.00 0.00 76 1013.8
20240521023022 74 86 4.0 11.0 0.00 0.00 0.00 76 1013.8
20240521022024 74 85 4.0 12.0 0.00 0.00 0.00 76 1013.8
20240521021025 75 83 4.0 10.0 0.00 0.00 0.00 76 1013.7
20240521020448 75 115 3.0 10.0 0.00 0.00 0.00 75 1013.5
20240521015017 75 77 4.0 9.0 0.00 0.00 0.00 74 1013.4
20240521014458 76 54 5.0 10.0 0.00 0.00 0.00 74 1013.3
20240521013017 76 111 4.0 10.0 0.00 0.00 0.00 74 1013.2
20240521012503 76 60 4.0 10.0 0.00 0.00 0.00 74 1013.1
20240521011015 77 107 3.0 8.0 0.00 0.00 0.00 73 1012.9
20240521010015 78 56 4.0 9.0 0.00 0.00 0.00 72 1012.7
20240521005014 78 61 5.0 14.0 0.00 0.00 0.00 71 1012.5
20240521004016 78 40 4.0 11.0 0.00 0.00 0.00 71 1012.2
20240521003013 79 45 4.0 11.0 0.00 0.00 0.00 70 1012.0
20240521002013 79 73 6.0 13.0 0.00 0.00 0.00 69 1011.9
20240521001012 80 107 6.0 13.0 0.00 0.00 0.00 68 1011.8
20240521000014 80 54 6.0 15.0 0.00 0.00 0.00 68 1011.8
20240520235013 80 45 7.0 13.0 0.00 0.00 0.00 67 1011.6
20240520234013 81 54 6.0 14.0 0.00 0.00 0.00 67 1011.4
20240520233503 82 75 7.0 15.0 0.00 0.00 0.00 65 1011.3
20240520232503 83 71 6.0 15.0 0.00 0.00 0.00 64 1011.0
20240520231011 84 62 6.0 15.0 0.00 0.00 0.00 63 1010.9
20240520230012 86 66 6.0 13.0 0.00 0.00 0.00 60 1010.8
20240520225013 87 50 7.0 12.0 0.00 0.00 0.00 51 1010.8
20240520224011 87 49 7.0 12.0 0.00 0.00 0.00 50 1010.7
20240520223010 88 8 7.0 14.0 0.00 0.00 0.00 50 1010.7
20240520222010 88 39 7.0 13.0 0.00 0.00 0.00 51 1010.7
20240520221010 88 35 8.0 13.0 0.00 0.00 0.00 50 1010.8
20240520220012 88 20 8.0 14.0 0.00 0.00 0.00 51 1010.8
20240520215009 89 15 8.0 14.0 0.00 0.00 0.00 51 1010.8
20240520214012 89 56 9.0 16.0 0.00 0.00 0.00 51 1010.8
20240520213011 89 29 7.0 13.0 0.00 0.00 0.00 50 1010.9
20240520212004 89 356 7.0 13.0 0.00 0.00 0.00 52 1010.8
20240520211004 89 52 7.0 16.0 0.00 0.00 0.00 52 1011.0
20240520210004 88 29 7.0 12.0 0.00 0.00 0.00 54 1011.0
20240520205444 89 25 8.0 14.0 0.00 0.00 0.00 52 1011.1
20240520204923 89 20 6.0 12.0 0.00 0.00 0.00 54 1011.1
20240520203004 89 80 7.0 14.0 0.00 0.00 0.00 53 1011.3
20240520201953 87 49 5.0 13.0 0.00 0.00 0.00 56 1011.5
20240520201909 86 107 5.0 10.0 0.00 0.00 0.00 56 1011.6
20240520195954 88 49 5.0 9.0 0.00 0.00 0.00 55 1011.6
20240520194955 90 38 6.0 12.0 0.00 0.00 0.00 54 1011.7
20240520193954 88 334 6.0 11.0 0.00 0.00 0.00 56 1011.8
20240520192954 88 47 8.0 12.0 0.00 0.00 0.00 55 1011.8
20240520191954 87 4 6.0 13.0 0.00 0.00 0.00 58 1011.9
20240520190953 89 20 6.0 13.0 0.00 0.00 0.00 55 1011.9
20240520185954 87 333 6.0 11.0 0.00 0.00 0.00 55 1012.1
20240520184954 88 8 6.0 13.0 0.00 0.00 0.00 56 1012.0
20240520183955 89 25 7.0 14.0 0.00 0.00 0.00 55 1012.1
20240520182953 90 4 6.0 16.0 0.00 0.00 0.00 53 1012.1
20240520181952 90 2 4.0 13.0 0.00 0.00 0.00 49 1012.2
20240520180947 89 349 5.0 13.0 0.00 0.00 0.00 51 1012.2
20240520175949 90 321 6.0 15.0 0.00 0.00 0.00 48 1012.4
20240520174951 90 348 6.0 15.0 0.00 0.00 0.00 49 1012.4
20240520173945 89 308 5.0 11.0 0.00 0.00 0.00 48 1012.4